Regional Weather Roundup
Issued by NWS

Home | Current Version | Previous Version | Graphics & Text | Print | Product List | Glossary On
Versions: 1 2 3 4 5 6 7 8 9 10 11 12 13 14 15 16 17 18 19 20 21 22 23 24 25 26 27 28 29 30 31 32 33 34 35 36 37 38 39 40 41 42 43 44 45 46 47 48 49 50
000
ASUS43 KOAX 241702
RWRNE

WEATHER ROUNDUP FOR NEBRASKA
NATIONAL WEATHER SERVICE OMAHA NE
1200 PM CDT MON JUL 24 2017

NOTES: SATELLITE DATA IS BEING USED TO AUGMENT CLOUD COVER ABOVE
       12000 FEET.
       "FAIR" INDICATES FEW OR NO CLOUDS BELOW 12,000 FEET WITH NO
       SIGNIFICANT WEATHER AND/OR OBSTRUCTIONS TO VISIBILITY.


NEZ001>004-019>022-054>056-241800-
NEBRASKA PANHANDLE

CITY           SKY/WX    TMP DP  RH WIND       PRES   REMARKS
SCOTTSBLUFF    MOSUNNY   91  54  28 VRB6      29.95F
ALLIANCE       SUNNY     93  57  29 SW15G23   29.96F HX  91
CHADRON        SUNNY     94  51  23 S14       29.86F HX  91
GORDON         FAIR      88  62  42 SW20G25   29.92R
KIMBALL        SUNNY     90  50  25 SW13      30.05F
SIDNEY         SUNNY     90  58  33 SW20G26   30.03F
$$

NEZ057>060-069>072-079>082-241800-
SOUTHWEST NEBRASKA

CITY           SKY/WX    TMP DP  RH WIND       PRES   REMARKS
NORTH PLATTE   SUNNY     92  62  36 SW13G20   29.97F HX  92
IMPERIAL       SUNNY     92  58  31 S15       29.99F HX  91
LEXINGTON      SUNNY     84  70  62 S7        29.99F
MCCOOK         SUNNY     93  62  35 S13G18    29.98F HX  93
OGALLALA       SUNNY     91  59  33 S18       29.97F HX  90
$$

NEZ005>010-023>029-035>040-094-241800-
NORTH CENTRAL NEBRASKA

CITY           SKY/WX    TMP DP  RH WIND       PRES   REMARKS
VALENTINE      SUNNY     94  57  28 S15G24    29.89F HX  92
AINSWORTH      SUNNY     89  63  42 S16G25    29.92F
BROKEN BOW     SUNNY     87  66  49 S10G20    29.98F
O`NEILL        SUNNY     82  65  56 S18       29.97F
ORD            SUNNY     84  64  50 SE13      29.97F
THEDFORD       SUNNY     90  59  35 SW17G26   29.96F
$$

NEZ041-046>049-061>064-073>077-083>087-241800-
SOUTH CENTRAL NEBRASKA

CITY           SKY/WX    TMP DP  RH WIND       PRES   REMARKS
GRAND ISLAND   FAIR      83  68  60 SE13      30.01F
AURORA         FAIR      81  67  63 S9        30.01F
HASTINGS       FAIR      82  66  58 S12       30.02F
HEBRON         FAIR      85  66  52 SE12      30.01F
HOLDREGE       FAIR      82  67  61 SE8       30.00F
KEARNEY        FAIR      84  69  60 S10       30.01F
YORK           FAIR      81  68  65 S8        30.02F
$$

NEZ011>018-030>034-042>045-241800-
NORTHEAST NEBRASKA

CITY           SKY/WX    TMP DP  RH WIND       PRES   REMARKS
NORFOLK        FAIR      80  61  52 S13       30.00F
ALBION         FAIR      82  66  58 S12       30.01S
BLAIR          FAIR      78  63  60 SE6       30.03S
COLUMBUS       FAIR      79  65  62 S8        30.02F
FREMONT        FAIR      79  62  56 S9        30.03S
TEKAMAH        FAIR      78  63  59 VRB7      30.02S
WAYNE          FAIR      78  65  62 S13       30.02S
$$

NEZ050>053-065>068-078-088>093-241800-
SOUTHEAST NEBRASKA

CITY           SKY/WX    TMP DP  RH WIND       PRES   REMARKS
LINCOLN        FAIR      82  65  56 SE6       30.02F
OMAHA EPPLEY   FAIR      80  62  54 S8        30.02F
BEATRICE       FAIR      83  64  53 SE6       30.02S
FALLS CITY     FAIR      81  65  58 E6        30.02S
NEBRASKA CITY  FAIR      78  67  69 SE3       30.03S
PLATTSMOUTH    FAIR      78  63  60 SE3       30.04S
$$

NEZ044-045-051>053-067-241800-
OMAHA AREA

CITY           SKY/WX    TMP DP  RH WIND       PRES   REMARKS
OMAHA EPPLEY   FAIR      80  62  54 S8        30.02F
BLAIR          FAIR      78  63  60 SE6       30.03S
FREMONT        FAIR      79  62  56 S9        30.03S
MILLARD        FAIR      81  65  57 SE7       30.02F
OFFUTT AFB     FAIR      80  62  54 E6        30.02F
PLATTSMOUTH    FAIR      78  63  60 SE3       30.04S
WAHOO          FAIR      78  63  60 SE7       30.02F
$$



USA.gov is the U.S. government's official web portal to all federal, state and local government web resources and services.